TimePST,TemperatureF,Dew PointF,Humidity,Sea Level PressureIn,VisibilityMPH,Wind Direction,Wind SpeedMPH,Gust SpeedMPH,PrecipitationIn,Events,Conditions,WindDirDegrees,DateUTC
12:53 AM,39.0,33.1,79,30.02,10.0,Calm,Calm,-,N/A,,Mostly Cloudy,0,2013-02-20 08:53:00
1:53 AM,36.0,32.0,86,30.03,10.0,SE,5.8,-,N/A,,Scattered Clouds,130,2013-02-20 09:53:00
2:53 AM,37.0,32.0,82,30.04,10.0,ESE,5.8,-,N/A,,Overcast,120,2013-02-20 10:53:00
3:53 AM,37.0,32.0,82,30.04,10.0,SSE,8.1,-,N/A,,Overcast,160,2013-02-20 11:53:00
4:53 AM,37.4,32.0,81,30.05,10.0,SSE,6.9,-,N/A,,Overcast,150,2013-02-20 12:53:00
5:53 AM,37.0,30.9,79,30.05,10.0,SE,6.9,-,N/A,,Overcast,140,2013-02-20 13:53:00
6:53 AM,37.0,30.0,76,30.05,10.0,SE,8.1,-,N/A,,Overcast,130,2013-02-20 14:53:00
7:53 AM,37.9,30.9,76,30.04,10.0,SSE,6.9,-,N/A,,Overcast,150,2013-02-20 15:53:00
8:53 AM,39.0,30.9,73,30.04,10.0,SE,9.2,-,N/A,,Overcast,140,2013-02-20 16:53:00
9:53 AM,42.1,33.1,70,30.04,10.0,SE,8.1,-,N/A,,Overcast,130,2013-02-20 17:53:00
10:53 AM,44.1,35.1,71,30.05,10.0,Variable,6.9,16.1,N/A,,Overcast,0,2013-02-20 18:53:00
11:53 AM,45.0,35.1,68,30.05,10.0,South,9.2,-,N/A,,Overcast,190,2013-02-20 19:53:00
12:17 PM,46.4,35.6,66,30.04,10.0,SSE,11.5,-,N/A,,Overcast,160,2013-02-20 20:17:00
12:53 PM,45.0,36.0,71,30.03,10.0,South,10.4,18.4,N/A,,Overcast,170,2013-02-20 20:53:00
1:53 PM,46.0,36.0,68,30.01,10.0,South,6.9,16.1,N/A,,Overcast,170,2013-02-20 21:53:00
2:53 PM,46.9,35.1,63,30.00,10.0,South,5.8,-,N/A,,Overcast,180,2013-02-20 22:53:00
3:53 PM,45.0,37.9,76,30.01,10.0,South,4.6,-,0.01,Rain,Light Rain,170,2013-02-20 23:53:00
4:29 PM,44.6,37.4,76,30.01,10.0,South,3.5,-,0.01,Rain,Light Rain,180,2013-02-21 00:29:00
4:53 PM,44.1,37.9,79,30.01,8.0,SSW,3.5,-,0.02,Rain,Light Rain,200,2013-02-21 00:53:00
5:36 PM,44.6,37.4,76,30.01,7.0,SSE,4.6,-,0.02,Rain,Light Rain,150,2013-02-21 01:36:00
5:53 PM,44.1,37.0,76,30.01,8.0,ESE,5.8,-,0.03,Rain,Light Rain,110,2013-02-21 01:53:00
6:53 PM,43.0,37.9,82,30.02,10.0,ESE,3.5,-,0.01,,Overcast,120,2013-02-21 02:53:00
7:26 PM,42.8,37.4,81,30.02,10.0,SE,4.6,-,N/A,,Overcast,130,2013-02-21 03:26:00
7:53 PM,43.0,37.0,80,30.02,10.0,ESE,3.5,-,N/A,,Overcast,120,2013-02-21 03:53:00
8:53 PM,43.0,37.9,82,30.02,10.0,Calm,Calm,-,N/A,,Overcast,0,2013-02-21 04:53:00
9:02 PM,42.8,37.4,81,30.02,10.0,Calm,Calm,-,N/A,,Overcast,0,2013-02-21 05:02:00
9:22 PM,42.8,37.4,81,30.02,10.0,Calm,Calm,-,N/A,,Overcast,0,2013-02-21 05:22:00
9:53 PM,42.1,37.0,82,30.03,10.0,Calm,Calm,-,N/A,,Overcast,0,2013-02-21 05:53:00
10:53 PM,42.1,37.0,82,30.04,10.0,Calm,Calm,-,N/A,,Overcast,0,2013-02-21 06:53:00
11:53 PM,42.1,37.0,82,30.02,10.0,Calm,Calm,-,N/A,,Overcast,0,2013-02-21 07:53:00